Tracking 30995 objects as of 7-Jul-2025
HD Live streaming from Space Station
objects crossing your sky now

STARLINK-2185

Track STARLINK-2185 now!
10-day predictions
STARLINK-2185 is classified as:


NORAD ID: 47767
Int'l Code: 2021-017AX
Perigee: 553.6 km
Apogee: 555.1 km
Inclination: 53.1 °
Period: 95.6 minutes
Semi major axis: 6925 km
RCS: Unknown
Launch date: March 4, 2021
Source: United States (US)
Launch site: AIR FORCE EASTERN TEST RANGE (AFETR)
Your satellite tracking list
BEIDOU 3M23
Track 1 satellite(s)




NASA's NSSDC Master Catalog

Two Line Element Set (TLE):
1 47767U 21017AX  25187.41740395  .00000997  00000-0  85837-4 0  9998
2 47767  53.0539 237.1784 0001108  86.9935 273.1181 15.06401704240669
Source of the keplerian elements: AFSPC